Regional Weather Roundup
Issued by NWS Upton, NY

Home | Current Version | Previous Version | Text Only | Print | Product List | Glossary On
Versions: 1 2 3 4 5 6 7 8 9 10 11 12 13 14 15 16 17 18 19 20 21 22 23 24 25 26 27
000
ASUS41 KOKX 202205
RWROKX

REGIONAL WEATHER ROUNDUP
NATIONAL WEATHER SERVICE NEW YORK NY
600 PM EDT SUN APR 20 2014

NOTE: "FAIR" INDICATES FEW OR NO CLOUDS BELOW 12,000 FEET WITH NO
SIGNIFICANT WEATHER AND/OR OBSTRUCTIONS TO VISIBILITY.

NYZ071-072-176-178-NJZ106-104-202300-
NEW YORK CITY METRO AREA


CITY           SKY/WX    TMP DP  RH WIND       PRES   REMARKS
CENTRAL PARK   SUNNY     52  27  38 VRB6      30.44F
LAGUARDIA APRT MOSUNNY   52  24  33 SE10      30.42F
KENNEDY INTL   MOSUNNY   50  24  36 SE14      30.44F
NEWARK/LIBERTY MOSUNNY   50  26  39 SE10      30.43F
TETERBORO      SUNNY     54  29  38 S8        30.41S
$$

NYZ177-179-078>081-202300-
LONG ISLAND NEW YORK

CITY           SKY/WX    TMP DP  RH WIND       PRES   REMARKS
FARMINGDALE    SUNNY     48  27  44 E8        30.43F
ISLIP          MOSUNNY   50  27  40 E12       30.41F
SHIRLEY        SUNNY     49  26  41 SE8       30.44F
WESTHAMPTON    SUNNY     48  25  40 VRB5      30.45F
MONTAUK POINT    N/A     48  31  51 SE6       30.45F
$$

NYZ052-065-067-202300-
HUDSON VALLEY

CITY           SKY/WX    TMP DP  RH WIND       PRES   REMARKS
WHITE PLAINS   SUNNY     53  22  29 SE10      30.40S
NEWBURGH       SUNNY     59  27  29 SE12      30.37F
MONTGOMERY     SUNNY     61  25  25 S8        30.34F
POUGHKEEPSIE   SUNNY     61  24  24 S6        30.35S
ALBANY         MOSUNNY   63  17  17 S9        30.32F
$$

NJZ001-105-106-008-010-013-015-019>022-104-202300-
NEW JERSEY

CITY           SKY/WX    TMP DP  RH WIND       PRES   REMARKS
NEWARK/LIBERTY MOSUNNY   50  26  39 SE10      30.43F
TETERBORO      SUNNY     54  29  38 S8        30.41S
CALDWELL       SUNNY     52  28  39 SE8       30.42S
MORRISTOWN     MOSUNNY   52  27  37 S10       30.43R
SOMERVILLE     SUNNY     54  25  32 E8        30.39S
LINDEN         FAIR      51  24  34 SE10      30.45F
SUSSEX         SUNNY     62  28  27 S7        30.36S
ANDOVER          N/A     56  26  31 S9        30.37S
TRENTON        SUNNY     55  26  32 SE12      30.39S
MILLVILLE      SUNNY     53  30  41 E12       30.39R
ATLANTIC CITY  SUNNY     48  27  44 NE18      30.40F
WRIGHTSTOWN    MOSUNNY   50  24  35 E12       30.39S
TOMS RIVER     SUNNY     43  27  52 E3        30.43S
BELMAR         MOSUNNY   46  25  42 E13       30.43S
$$

PAZ047>061-062-071-202300-
EASTERN PENNSYLVANIA

CITY           SKY/WX    TMP DP  RH WIND       PRES   REMARKS
PHILADELPHIA   PTSUNNY   56  26  31 E12       30.39F
ALLENTOWN      SUNNY     61  27  27 SE10      30.36S
SCRANTON       SUNNY     64  26  23 S9G20     30.30F
$$

CTZ002-004>006-009-010-012-RIZ004-006-007-MAZ004-011-015-202300-
SOUTHERN NEW ENGLAND
 IN CT

CITY           SKY/WX    TMP DP  RH WIND       PRES   REMARKS
BRADLEY INTL   PTSUNNY   61  14  16 S8        30.36F
HARTFORD       SUNNY     56  25  30 S13G20    30.39S
DANBURY        SUNNY     54  22  28 S8G18     30.40S
WTRBRY/OXFORD  SUNNY     52  25  35 S9G17     30.42S
BRIDGEPORT     SUNNY     50  35  56 E10       30.43S
MERIDEN        SUNNY     52  26  36 S12       30.41F
NEW HAVEN      MOSUNNY   50  30  46 SE8       30.43F
CHESTER        FAIR      48  23  37 S7        30.43S
GROTON         SUNNY     46  31  55 SE8       30.44F
WILLIMANTIC    SUNNY     54  29  38 S10       30.41S

 IN RI

CITY           SKY/WX    TMP DP  RH WIND       PRES   REMARKS
PROVIDENCE     MOSUNNY   50  29  44 S14       30.43F
BLOCK ISLAND   SUNNY     46  30  53 SE13      30.43F
WESTERLY       SUNNY     46  31  55 S6        30.45F

 IN MA

CITY           SKY/WX    TMP DP  RH WIND       PRES   REMARKS
BOSTON         PTSUNNY   44  31  60 E12       30.44F
WORCESTER      SUNNY     54  14  20 SE12      30.37F
WESTFIELD      SUNNY     61  12  14 S6        30.36F
PROVINCETOWN   SUNNY     45  32  61 MISG      30.45F
NANTUCKET      SUNNY     45  32  60 NE9       30.44F
$$

ANZ330-335-338-340-345-350-353-355-202300-
COASTAL MARINE OBSERVATIONS


STATION/POSITION TIME  SKY/WX   TEMP    WIND        PRES    VSBY  WAVE
                                AIR SEA DIR/SP/G                  HT/PER
                 (UTC)          (F)     (DEG/KT/KT) (MB)    (MI)  (FT/S)
NY HARB ENTRANCE 2200            45 45  VRB 10/ 12  1030.4
4S FIRE IS       2100               45                N/A           3/ 8
23SW MTP         2200            43 43   70/  6/  8 1030.5          3/ 8
HUDSON CANYON    2100            43 44   40/ 19/ 21 1029.0          7/ 7
EXECUTION ROCKS  2200            53 46  160/  8/ 12   N/A
WESTERN LI SOUND 2200            46      70/  6/  8   N/A           0
CENTRAL LI SOUND 2200            46 43  110/  2/  4   N/A           0
EASTERN LI SOUND NOT AVBL
ROBBINS REEF     2200            45     180/ 12/ 13   N/A
$$


>>>>>>>>>>>>>>>>>>>>>>>>>>>> KEY <<<<<<<<<<<<<<<<<<<<<<<<<<<
>                                                          <
>     SKY/WX - SKY CONDITION/PRESENT WEATHER               <
>     TMP    - TEMPERATURE IN FAHRENHEIT                   <
>     DP     - DEWPOINT IN FAHRENHEIT                      <
>     RH     - RELATIVE HUMIDITY IN PERCENT                <
>     WIND   - DIRECTION AND SPEED IN MPH                  <
>     PRES   - MEAN SEA LEVEL PRESSURE IN INCHES OF HG     <
>     WCI    - WIND CHILL INDEX                            <
>     VSB    - VISIBILITY IN MILES                         <
>     HX     - HEAT INDEX                                  <
>     TC     - TEMPERATURE IN CELSIUS                      <
>     VRB    - VARIABLE WIND DIRECTION                     <
>                                                          <
>>>>>>>>>>>>>>>>>>>>>>>>>>>> KEY <<<<<<<<<<<<<<<<<<<<<<<<<<<





USA.gov is the U.S. government's official web portal to all federal, state and local government web resources and services.